Regional Weather Roundup
Issued by NWS

Home | Current Version | Previous Version | Graphics & Text | Print | Product List | Glossary On
Versions: 1 2 3 4 5 6 7 8 9 10 11 12 13 14 15 16 17 18 19 20 21 22 23 24 25 26 27 28 29 30 31 32 33 34 35 36 37 38 39 40 41 42 43 44 45 46 47 48 49 50
000
ASUS43 KMPX 252301
RWRMN
WEATHER ROUNDUP FOR MINNESOTA
NATIONAL WEATHER SERVICE TWIN CITIES/CHANHASSEN MN
600 PM CDT FRI JUL 25 2014


NOTE: "FAIR" INDICATES FEW OR NO CLOUDS BELOW 12,000 FEET WITH NO
SIGNIFICANT WEATHER AND/OR OBSTRUCTIONS TO VISIBILITY. N/A MEANS
CURRENT SKY AND/OR WEATHER CONDITIONS ARE NOT AVAILABLE.

MNZ060>063-068>070-260000-
   Twin Cities Metro

CITY           SKY/WX    TMP DP  RH WIND       PRES   REMARKS
TWIN CITIES    CLOUDY    80  68  66 S6        29.78S
ST PAUL        CLOUDY    77  70  79 S7        29.77F
CRYSTAL        CLOUDY    81  67  62 S7G17     29.76F
LAKEVILLE      CLOUDY    75  68  78 CALM      29.79S
EDEN PRAIRIE   CLOUDY    78  69  73 SW5       29.77S
SOUTH ST PAUL  CLOUDY    79  68  68 S3        29.78S
LAKE ELMO      CLOUDY    77  70  78 S8        29.79F
$$
MNZ001>005-007-008-013>017-022>024-027-028-260000-
   Northwest Minnesota

CITY           SKY/WX    TMP DP  RH WIND       PRES   REMARKS
BEMIDJI        CLOUDY    75  67  76 SW5       29.75F
HALLOCK        SUNNY     81  52  36 W13G20    29.70S
ROSEAU         MOSUNNY   79  68  69 W14G21    29.70S
WARROAD        MOSUNNY   79  70  73 S8        29.69F
THIEF RVR FALL PTSUNNY   77  64  65 W13       29.73S
CROOKSTON      SUNNY     79  61  53 NW14      29.73S
FOSSTON        PTSUNNY   75  66  73 SW9       29.75F
DETROIT LAKES  PTSUNNY   75  68  78 W3        29.78S
MOORHEAD       MOSUNNY   81  72  74 N7        29.75S
PARK RAPIDS    CLOUDY    76  67  73 W7        29.76S
$$
MNZ006-009>011-018-025>026-260000-
   North Central Minnesota

CITY           SKY/WX    TMP DP  RH WIND       PRES   REMARKS
BAUDETTE       PTSUNNY   76  66  71 S8        29.72F
FLAG ISLAND    MOSUNNY   72  64  78 S9        29.69S
INTL FALLS     CLOUDY    73  64  73 SW7       29.74S
WASKISH        PTSUNNY   75  66  73 CALM      29.74S
BIG FORK       MOSUNNY   73  66  78 S5        29.78R
LONGVILLE      CLOUDY    73  70  88 CALM      29.76F
GRAND RAPIDS   CLOUDY    75  66  73 CALM      29.77S
CRANE LAKE     CLOUDY    72  64  78 S8        29.76F
ORR            CLOUDY    70  61  73 S6        29.75S
COOK           CLOUDY    70  64  83 CALM      29.78S
$$
MNZ012-019>021-037-260000-
   Northeast Minnesota

CITY           SKY/WX    TMP DP  RH WIND       PRES   REMARKS
DULUTH         CLOUDY    69  64  84 SE8       29.80S
ELY            CLOUDY    70  63  78 SW6       29.78S
HIBBING        CLOUDY    75  65  70 SE7       29.78S
EVELETH        CLOUDY    72  64  78 S5        29.79S
DULUTH HARBOR  CLOUDY    63  59  88 CALM      29.79S
TWO HARBORS    CLOUDY    66  63  88 S6        29.79R
SILVER BAY     MOSUNNY   66  66 100 S10       29.77F
GRAND MARAIS     N/A     57  53  86 CALM      29.78S
G MARAIS ARPRT PTSUNNY   64  57  77 S3        29.81F
$$
MNZ029>031-032-039>041-046>048-054>057-064-260000-
   West Central Minnesota

CITY           SKY/WX    TMP DP  RH WIND       PRES   REMARKS
FERGUS FALLS   CLOUDY    75  66  73 W5        29.75F
MORRIS         SUNNY     77  70  78 NW6       29.76F
ALEXANDRIA     CLOUDY    76  67  73 CALM      29.79S
ELBOW LAKE     FAIR      76  68  76 W5        29.77S
WADENA         CLOUDY    75  66  73 SW5       29.77S
GLENWOOD       MOSUNNY   79  66  65 W6        29.79S
APPLETON       PTSUNNY   81  70  69 N8        29.75F
BENSON         MOSUNNY   79  70  73 N6        29.76F
ORTONVILLE     SUNNY     79  66  65 NW7       29.76F
MADISON        SUNNY     81  72  74 N12       29.76F
WILLMAR        FAIR      81  70  69 CALM      29.77F
$$
MNZ033>034-036-042>043-049>051-058-059-260000-
   Central Minnesota

CITY           SKY/WX    TMP DP  RH WIND       PRES   REMARKS
ST CLOUD       CLOUDY    80  69  69 SW5       29.77S
SAUK CENTRE    CLOUDY    76  67  74 CALM      29.78S
PAYNESVILLE    HVY RAIN  75  68  78 E3        29.78S
AITKIN         PTSUNNY   81  70  69 SW6       29.76S
PINE RIVER     CLOUDY    77  68  73 S3        29.80S
BRAINERD       CLOUDY    74  67  78 S6        29.77F
STAPLES        CLOUDY    75  66  73 SW3       29.77F
LONG PRAIRIE   CLOUDY    73  66  78 SW3       29.78S
LITTLE FALLS   PTSUNNY   75  64  69 CALM      29.77F
LITCHFIELD     CLOUDY    81  73  78 CALM      29.78S
BUFFALO        CLOUDY    78  68  72 CALM      29.79R
MAPLE LAKE     CLOUDY    77  72  86 CALM      29.78S
$$
MNZ037-044-045-052-053-260000-
   East Central Minnesota

CITY           SKY/WX    TMP DP  RH WIND       PRES   REMARKS
PRINCETON      CLOUDY    79  70  73 CALM      29.78S
MORA           PTSUNNY   72  66  83 CALM      29.80S
CAMBRIDGE      DRIZZLE   77  66  69 CALM      29.76S
RUSH CITY      CLOUDY    73  67  80 SE3       29.79S
MOOSE LAKE     CLOUDY    73  68  83 S5        29.75F
HINCKLEY       CLOUDY    72  68  88 SE5       29.79S
CLOQUET        CLOUDY    70  63  78 SE8       29.79S
MCGREGOR       CLOUDY    77  68  73 SW5       29.77S
$$
MNZ071>073-080-081-089-090-097-098-260000-
   Southwest Minnesota

CITY           SKY/WX    TMP DP  RH WIND       PRES   REMARKS
MONTEVIDEO     CLOUDY    81  72  74 N5        29.77S
GRANITE FALLS  CLOUDY    81  71  71 NW7       29.77F
CANBY          CLOUDY    81  70  69 N7        29.77F
MARSHALL       CLOUDY    82  72  69 N7        29.75
REDWOOD FALLS  CLOUDY    84  72  67 W6        29.75F
OLIVIA         CLOUDY    81  70  69 NW3       29.76S
PIPESTONE      SUNNY     82  66  57 CALM      29.79F
WINDOM         PTSUNNY   81  70  69 SW3       29.79F
WORTHINGTON    CLOUDY    81  72  74 W3        29.81S
JACKSON        CLOUDY    79  68  69 S3        29.80F
TRACY          CLOUDY    83  71  69 NW6       29.77F
SLAYTON        PTSUNNY   82  70  67 CALM      29.80F
$$
MNZ065>067-074>077-082>085-091>093-260000-
   South Central Minnesota

CITY           SKY/WX    TMP DP  RH WIND       PRES   REMARKS
MANKATO        CLOUDY    79  66  65 S9        29.79S
NEW ULM        SUNNY     79  72  78 S7        29.77F
ST JAMES       CLOUDY    79  68  69 SE8       29.79S
FAIRMONT       CLOUDY    79  63  57 S8        29.80S
GLENCOE        CLOUDY    79  68  67 S5        29.77S
FARIBAULT      CLOUDY    81  64  57 S6        29.80R
OWATONNA       MOSUNNY   79  66  65 S9        29.80S
WASECA         CLOUDY    77  63  61 S9        29.81S
ALBERT LEA     PTSUNNY   77  66  69 S9        29.81S
$$
MNZ078>079-086>088-094>096-260000-
   Southeast Minnesota

CITY           SKY/WX    TMP DP  RH WIND       PRES   REMARKS
ROCHESTER      MOSUNNY   79  68  69 S10       29.82F
RED WING       CLOUDY    81  68  65 SE5       29.78S
STANTON        CLOUDY    80  69  69 SW6       29.78R
DODGE CENTER   CLOUDY    79  70  73 S13       29.81S
WINONA         MOSUNNY   79  66  65 S3        29.82S
AUSTIN         CLOUDY    77  68  73 SW8       29.82S
PRESTON        PTSUNNY   76  71  83 S9        29.84S
$$
ABBREVIATIONS USED IN REMARKS
   TC - TEMPERATURES IN CELSIUS
  WCI - WIND CHILL INDEX
   HX - HEAT INDEX
  VSB - VISIBILITY
$$


USA.gov is the U.S. government's official web portal to all federal, state and local government web resources and services.